sat.trackr.live / text

‹ back to catalog

STARLINK-36925

NORAD 68042 · 2026-041C

PAYLOAD ACTIVE UNKNOWN

§ Identity

Operator
Country
US
Launch date
2026-03-02
Launch site
AFETR
Launch vehicle
Mass (kg)
RCS (m²)

Purposes: comms

External: N2YO · Heavens-Above · Gunter

§ Orbital elements

Epoch: 2026-09-19T14:50:36.816288Z

Period
93.85 min
Inclination
53.1578°
Eccentricity
0.0001492
Mean motion
15.34395742 rev/d
Perigee alt
461.7 km
Apogee alt
463.7 km
Semi-major
6,840.9 km
B*
1.7630e-4
RAAN
225.9824°
Arg perigee
93.3050°
Mean anomaly
266.8123°
Rev number
3,112

§ Raw data

STARLINK-369251 68042U 26041C   26262.61848167  .00005584  00000+0  17630-3 0  99932 68042  53.1578 225.9824 0001492  93.3050 266.8123 15.34395742 31127

JSON: /api/v1/satellites/68042 · /tle

For live sub-satellite position, see the globe view (requires WebGL).

§ Visibility from observer

Set your observer location to see the next 7 days of passes ≥ 10°. The values pass through the URL so the page stays shareable.

No JS? Fill the form by hand. The geolocation button needs JavaScript.